Orbital Elements at Epoch 2459000.5 (2020-May-31.0) TDB
Reference: JPL 14 (heliocentric ecliptic J2000)
Element | Value | Uncertainty (1-sigma) | Units |
e | .2296454465136001 | 3.9394e-08 | |
a | 2.191807166612777 | 5.8716e-09 | au |
q | 1.688468631164277 | 8.7712e-08 | au |
i | 3.77409918458781 | 3.6954e-06 | deg |
node | 65.73240747476055 | 6.7035e-05 | deg |
peri | 296.2644613814736 | 6.773e-05 | deg |
M | 64.39263285696937 | 7.8385e-06 | deg |
tp | 2458788.500116276778 (2019-Nov-01.00011628) | 2.5691e-05 | TDB |
period | 1185.228103809387 3.24 | 4.7626e-06 1.304e-08 | d yr |
n | .3037390008243483 | 1.2205e-09 | deg/d |
Q | 2.695145702061276 | 7.22e-09 | au |
|
| | Orbit Determination Parameters
Additional Information
|